Showing default

COSMOS 1997, 19788

Orbit data source: Space-Track

COSMOS 1997, 19788 is a payload satellite owned by UNKS (CIS) in LEO that was launched on Fri, 10 Feb 1989 UTC via a TSIKLON-3 launch vehicle from the Plesetsk Missile And Space Complex (PKMTR). Payload-class satellites include a variety of spacecraft equipped with specific instruments for various scientific and technological missions. These include communications satellites like Starlink; space stations such as the ISS; scientific satellites like the Hubble; Earth observation satellites from companies like Planet Labs, Umbra, and HawkEye 360; GPS; miniature CubeSats for education and research; and military/defense satellites.

Loading next visibility...
Identifier
19788, 1989-009D
Orbit
LEO
Country
Flag of CISCIS
Related business
Manufacturer
NPO PM
Mission
Defense Communications
Bus & Motor
STRELA-3, Unknown motor
Mass
225 kg wet, 225 kg dry
Launch date (UTC)
1989-02-10 (37 years ago)
Launch vehicle
TSIKLON-3
Launch site
Plesetsk Missile And Space Complex (PKMTR)
Object type
Payload
Rocket body
Debris
Shape & HBR
Cyl, 0.8 m
Radar Cross Section
1.257 m², Large (>1 m²)

Expand to show TLE details & history
Last TLE update: 7 hours ago

TLE from 7 hours ago
0 COSMOS 1997
1 19788U 89009D   26126.22300876  .00000036  00000-0  13957-3 0  9991
2 19788  82.6235  27.4336 0010611  78.8976  90.1364 12.63688425717205
Epoch: 2026-05-06T05:21Z
TLE epoch observation values (Epoch: 2026-05-06T05:21:07.956Z)
Latitude
10.70639°
Longitude
-98.33176°
Altitude
1,409.773 km
Speed
7.156 km/s
True Right ascension
13h 44m 09s
True Declination
10° 38' 57"
Sunlit
Object was in full shadow at epoch
Visualization orbit readout
Latitude
Unknown
Longitude
Unknown
Altitude
Unknown
Speed
Unknown
Apparent Right ascension
Unknown
Apparent Declination
Unknown
Sunlit
N/A
Visualization observer readout
Local Sidereal Time
20:15:13
Azimuth
Unknown
Elevation
Unknown
Doppler factor
Unknown
Orbital elements
Apogee altitude
1,413.333 km
Perigee altitude
1,396.816 km
Semi-major axis
7,783.211 km
Eccentricity
0.00106
Inclination
82.6235°
RAAN
27.4336°
Arg. of periapsis
78.8976°
True anomaly
90.25799°
Mean anomaly
90.1364°
Eccentric anomaly
90.1972°
Mean motion
3.16086 °/min
Orbital period
113.89 mins
BSTAR
0.00013957
Loading maneuver chart data...
Computing Atmospheric mass density...
Loading historical data...
Loading historical data...
Loading historical data...
Loading historical data...
Loading historical data...
Loading historical data...
Loading historical data...

Documentation

Showing up to 5 results
|